Weather History for Olathe, KS

Change the Weather History Date:

Tuesday, January 7, 2014

  Actual Average Record
Temperature  
Mean Temperature 16 °F 30 °F  
Max Temperature 34 °F 38 °F 69 °F (1965)
Min Temperature -2 °F 21 °F -11 °F (1968)
Degree Days  
Heating Degree Days 49 35  
Month to date heating degree days 353 245  
Since 1 July heating degree days 2518 2210  
Cooling Degree Days 0 0  
Month to date cooling degree days 0 0  
Year to date cooling degree days 0 0  
Moisture  
Dew Point 7 °F    
Average Humidity 61    
Maximum Humidity 75    
Minimum Humidity 47    
Precipitation  
Precipitation 0.00 in 0.03 in 0.24 in (1940)
Month to date precipitation T 0.21  
Year to date precipitation T 0.21  
Sea Level Pressure  
Sea Level Pressure 30.24 in    
Wind  
Wind Speed 7 mph (SSW)    
Max Wind Speed 17 mph    
Max Gust Speed 24 mph    
Visibility 10 miles    
Events      
T = Trace of Precipitation, MM = Missing Value Source: NWS Daily Summary

Daily Weather History Graph

Daily Weather History Graph

Search for Another Location

Airport:

Trip Planner

Search our weather history database for the weather conditions in past years. The results will help you decide how hot, cold, wet, or windy it might be!

Date:

Astronomy

Jan. 07, 2014 Rise Set
Actual Time 7:37 AM CST 5:13 PM CST
Civil Twilight 7:08 AM CST 5:42 PM CST
Nautical Twilight 6:34 AM CST 6:15 PM CST
Astronomical Twilight 6:02 AM CST 6:48 PM CST
Moon 11:31 AM CST (1/7) No Moon Set
Length of Visible Light 10h 34m
Length of Day
9h 35m
Waxing Crescent, 46% of the Moon is Illuminated
Jan 7
Waxing Crescent
Jan 7
First Quarter
Jan 15
Full
Jan 23
Last Quarter
Jan 30
New

Hourly Weather History & Observations

Time (CST) Temp. Windchill Dew Point Humidity Pressure Visibility Wind Dir Wind Speed Gust Speed Precip Events Conditions
12:53 AM -0.0 °F -9.9 °F -9.0 °F 66% 30.45 in 10.0 mi SW 4.6 mph - N/A   Clear
1:53 AM -0.9 °F -14.1 °F -11.0 °F 62% 30.41 in 10.0 mi South 6.9 mph - N/A   Clear
2:53 AM -0.9 °F -14.1 °F -9.9 °F 66% 30.40 in 10.0 mi South 6.9 mph - N/A   Clear
3:53 AM -0.9 °F -14.1 °F -9.0 °F 69% 30.38 in 10.0 mi South 6.9 mph - N/A   Clear
4:53 AM 1.9 °F -13.8 °F -6.0 °F 69% 30.35 in 10.0 mi South 10.4 mph - N/A   Clear
5:53 AM 3.9 °F -12.2 °F -6.0 °F 64% 30.31 in 10.0 mi South 11.5 mph - N/A   Clear
6:53 AM 5.0 °F -12.3 °F -6.0 °F 61% 30.28 in 10.0 mi South 13.8 mph - N/A   Clear
7:53 AM 7.0 °F -9.1 °F -4.0 °F 61% 30.25 in 10.0 mi South 12.7 mph - N/A   Clear
8:53 AM 9.0 °F -6.6 °F -0.9 °F 64% 30.24 in 10.0 mi South 12.7 mph 21.9 mph N/A   Clear
9:53 AM 12.9 °F -0.2 °F 3.0 °F 65% 30.23 in 10.0 mi SSW 10.4 mph - N/A   Clear
10:53 AM 19.9 °F 9.3 °F 7.0 °F 57% 30.22 in 10.0 mi SSW 9.2 mph - N/A   Clear
11:53 AM 27.0 °F 16.1 °F 10.0 °F 49% 30.16 in 10.0 mi SW 12.7 mph 24.2 mph N/A   Clear
12:53 PM 30.0 °F 19.5 °F 12.0 °F 47% 30.14 in 10.0 mi SW 13.8 mph - N/A   Clear
1:53 PM 30.9 °F 21.2 °F 14.0 °F 50% 30.12 in 10.0 mi SW 12.7 mph 18.4 mph N/A   Clear
2:53 PM 33.1 °F 26.1 °F 16.0 °F 50% 30.13 in 10.0 mi WSW 8.1 mph - N/A   Clear
3:53 PM 33.1 °F 25.5 °F 17.1 °F 52% 30.15 in 10.0 mi SW 9.2 mph - N/A   Clear
4:53 PM 32.0 °F 27.5 °F 17.1 °F 54% 30.15 in 10.0 mi SW 4.6 mph - N/A   Clear
5:53 PM 28.0 °F 24.2 °F 17.1 °F 63% 30.17 in 10.0 mi SW 3.5 mph - N/A   Scattered Clouds
6:53 PM 27.0 °F 23.0 °F 17.1 °F 66% 30.18 in 10.0 mi SSW 3.5 mph - N/A   Clear
7:53 PM 27.0 °F - 17.1 °F 66% 30.20 in 10.0 mi Calm Calm - N/A   Clear
8:53 PM 27.0 °F - 18.0 °F 69% 30.22 in 10.0 mi Calm Calm - N/A   Clear
9:53 PM 26.1 °F - 17.1 °F 69% 30.23 in 10.0 mi Calm Calm - N/A   Clear
10:53 PM 26.1 °F 21.9 °F 18.0 °F 71% 30.22 in 10.0 mi South 3.5 mph - N/A   Clear
11:53 PM 24.1 °F - 18.0 °F 77% 30.22 in 10.0 mi Calm Calm - N/A   Clear